DW7087 Weather Reports


Display with metric or nautical units.
time (UTC)temp
F
wind
direction
speed
MPH
gust
MPH
rain 1hr
in
rain 24hr
in
rain mn
in
humidity
%
barometer
mb
20260505170927 61 37 4.0 7.0 0.00 0.00 0.00 56 1011.7
20260505170027 61 31 4.0 8.0 0.00 0.00 0.00 56 1011.7
20260505165406 61 51 5.0 8.0 0.00 0.00 0.00 57 1011.7
20260505164506 61 27 5.0 7.0 0.00 0.00 0.00 56 1011.7
20260505163606 61 68 4.0 6.0 0.00 0.00 0.00 57 1011.8
20260505162706 60 27 4.0 6.0 0.00 0.00 0.00 57 1011.9
20260505161806 60 16 3.0 5.0 0.00 0.00 0.00 60 1011.8
20260505160906 60 360 3.0 5.0 0.00 0.00 0.00 60 1011.9
20260505152727 60 11 5.0 8.0 0.00 0.00 0.00 59 1011.9
20260505151805 61 91 5.0 8.0 0.00 0.00 0.00 56 1012.0
20260505150905 61 15 4.0 6.0 0.00 0.00 0.00 53 1012.0
20260505124505 61 41 5.0 7.0 0.00 0.00 0.00 53 1012.5
20260505123626 61 62 3.0 6.0 0.00 0.00 0.00 54 1012.6
20260505122706 61 51 4.0 6.0 0.00 0.00 0.00 52 1012.5
20260505121827 62 24 5.0 7.0 0.00 0.00 0.00 52 1012.5
20260505120906 63 23 4.0 8.0 0.00 0.00 0.00 53 1012.4
20260505120006 63 34 4.0 7.0 0.00 0.00 0.00 55 1012.5
20260505115427 62 358 3.0 5.0 0.00 0.00 0.00 60 1012.5
20260505114527 60 14 3.0 4.0 0.00 0.00 0.00 61 1012.6
20260505113605 60 40 4.0 8.0 0.00 0.00 0.00 59 1012.7
20260505112705 60 50 5.0 11.0 0.00 0.00 0.00 61 1012.7
20260505111806 60 44 4.0 6.0 0.00 0.00 0.00 65 1012.8
20260505110927 58 52 4.0 6.0 0.00 0.00 0.00 65 1013.0
20260505101805 57 349 3.0 6.0 0.00 0.00 0.00 70 1013.2
20260505100905 56 3 5.0 7.0 0.00 0.00 0.00 70 1013.1
20260505100006 56 35 5.0 8.0 0.00 0.00 0.00 71 1013.2
20260505095405 57 38 5.0 8.0 0.00 0.00 0.00 71 1013.3
20260505094505 57 68 4.0 8.0 0.00 0.00 0.00 73 1013.3
20260505093605 56 15 5.0 7.0 0.00 0.00 0.00 73 1013.3
20260505092705 56 43 4.0 5.0 0.00 0.00 0.00 74 1013.3
20260505091805 55 360 4.0 5.0 0.00 0.00 0.00 74 1013.4
20260505090906 55 45 4.0 6.0 0.00 0.00 0.00 75 1013.3
20260505090005 55 35 5.0 7.0 0.00 0.00 0.00 75 1013.4
20260505085427 55 21 5.0 7.0 0.00 0.00 0.00 74 1013.4
20260505084526 55 337 5.0 8.0 0.00 0.00 0.00 76 1013.5
20260505083605 55 29 5.0 8.0 0.00 0.00 0.00 79 1013.5
20260505082705 55 2 6.0 8.0 0.00 0.00 0.00 80 1013.6
20260505081827 54 4 4.0 8.0 0.00 0.00 0.00 81 1013.4
20260505080905 54 320 4.0 7.0 0.00 0.00 0.00 82 1013.6
20260505080005 54 76 4.0 7.0 0.00 0.00 0.00 82 1013.6
20260505075405 54 51 4.0 7.0 0.00 0.00 0.00 83 1013.5
20260505074526 53 34 3.0 5.0 0.00 0.00 0.00 84 1013.5
20260505073626 53 352 2.0 4.0 0.00 0.00 0.00 84 1013.6
20260505072705 53 42 3.0 5.0 0.00 0.00 0.00 84 1013.6
20260505071805 53 32 3.0 6.0 0.00 0.00 0.00 84 1013.6
20260505070905 53 37 4.0 5.0 0.00 0.00 0.00 84 1013.7
20260505070026 53 32 5.0 5.0 0.00 0.00 0.00 85 1013.7
20260505065405 53 42 5.0 6.0 0.00 0.00 0.00 86 1013.7
20260505064505 53 25 3.0 5.0 0.00 0.00 0.00 87 1013.7
20260505063605 53 39 3.0 4.0 0.00 0.00 0.00 88 1013.6
20260505062705 52 53 2.0 3.0 0.00 0.00 0.00 88 1013.6
20260505061805 52 41 1.0 3.0 0.00 0.00 0.00 88 1013.5
20260505060905 52 9 1.0 3.0 0.00 0.00 0.00 89 1013.5
20260505060005 51 46 2.0 4.0 0.00 0.00 0.00 89 1013.7
20260505055405 51 45 0.0 2.0 0.00 0.00 0.00 89 1013.8
20260505054505 51 45 1.0 2.0 0.00 0.00 0.00 89 1013.6
20260505053605 51 32 2.0 3.0 0.00 0.00 0.00 89 1013.7
20260505052726 51 50 1.0 3.0 0.00 0.00 0.00 89 1013.7
20260505051805 51 48 1.0 2.0 0.00 0.00 0.00 90 1013.7
20260505050905 51 0 0.0 0.0 0.00 0.00 0.00 90 1013.7
20260505040905 51 58 0.0 2.0 0.00 0.00 0.00 89 1013.9
20260505040005 51 45 1.0 4.0 0.00 0.00 0.00 89 1014.0
20260505035426 51 42 1.0 4.0 0.00 0.00 0.00 89 1013.8
20260505034505 51 49 1.0 2.0 0.00 0.00 0.00 89 1013.8
20260505033605 51 53 1.0 2.0 0.00 0.00 0.00 89 1013.9
20260505032726 51 45 0.0 2.0 0.00 0.00 0.00 89 1013.9
20260505031805 51 343 1.0 2.0 0.00 0.00 0.00 89 1013.9
20260505030905 51 38 0.0 2.0 0.00 0.00 0.00 88 1013.9
20260505030005 51 0 0.0 0.0 0.00 0.00 0.00 88 1013.9
20260505025405 51 0 0.0 0.0 0.00 0.00 0.00 88 1013.8
20260505024505 51 45 0.0 1.0 0.00 0.00 0.00 87 1013.8
20260505023605 51 22 0.0 1.0 0.00 0.00 0.00 87 1013.8
20260505022705 51 0 0.0 0.0 0.00 0.00 0.00 87 1013.8
20260505021805 51 0 0.0 0.0 0.00 0.00 0.00 86 1013.8
20260505020905 51 0 0.0 0.0 0.00 0.00 0.00 85 1014.0
20260505020026 51 0 0.0 0.0 0.00 0.00 0.00 85 1013.9
20260505015405 52 0 0.0 0.0 0.00 0.00 0.00 84 1014.1
20260505014505 52 357 1.0 2.0 0.00 0.00 0.00 83 1014.0
20260505013605 53 41 2.0 4.0 0.00 0.00 0.00 83 1014.0
20260505012705 53 45 1.0 3.0 0.00 0.00 0.00 83 1014.2
20260505011805 53 13 1.0 4.0 0.00 0.00 0.00 83 1014.4
20260505010905 53 41 2.0 4.0 0.00 0.00 0.00 83 1014.5
20260505010005 53 293 1.0 3.0 0.00 0.00 0.00 83 1014.5
20260505005426 53 15 1.0 3.0 0.00 0.00 0.00 83 1014.5
20260505004526 54 71 0.0 2.0 0.00 0.00 0.00 82 1014.4
20260505003605 54 27 1.0 2.0 0.00 0.00 0.00 82 1014.6
20260505002705 54 25 3.0 4.0 0.00 0.00 0.00 82 1014.6
20260505001805 54 32 2.0 4.0 0.00 0.00 0.00 82 1014.5
20260505000926 54 47 2.0 4.0 0.00 0.00 0.00 82 1014.4
20260505000005 54 33 1.0 3.0 0.00 0.00 0.00 82 1014.6
20260504235405 54 41 2.0 6.0 0.00 0.00 0.00 82 1014.7
20260504234505 54 45 0.0 2.0 0.00 0.00 0.00 82 1014.8
20260504233605 54 0 0.0 0.0 0.00 0.00 0.00 81 1014.8
20260504232705 54 0 0.0 0.0 0.00 0.00 0.00 81 1014.9
20260504231805 55 45 0.0 2.0 0.00 0.00 0.00 81 1014.9
20260504230905 55 40 1.0 3.0 0.00 0.00 0.00 81 1014.9
20260504230026 55 69 1.0 2.0 0.00 0.00 0.00 81 1015.0
20260504225405 55 77 1.0 2.0 0.00 0.00 0.00 81 1014.8
20260504224526 55 51 3.0 5.0 0.00 0.00 0.00 80 1015.0
20260504223626 55 25 3.0 4.0 0.00 0.00 0.00 80 1014.9
20260504222705 55 55 3.0 4.0 0.00 0.00 0.00 79 1014.9
20260504221805 55 61 3.0 4.0 0.00 0.00 0.00 79 1015.0
20260504220926 56 56 3.0 5.0 0.00 0.00 0.00 78 1015.0
20260504220026 56 65 3.0 6.0 0.00 0.00 0.00 78 1014.9
20260504215405 56 60 3.0 5.0 0.00 0.00 0.00 78 1015.1
20260504214505 56 36 3.0 4.0 0.00 0.00 0.00 78 1015.1
20260504213626 56 50 3.0 6.0 0.00 0.00 0.00 78 1015.1
20260504212705 56 46 2.0 4.0 0.00 0.00 0.00 78 1015.2
20260504211805 56 48 3.0 4.0 0.00 0.00 0.00 78 1015.2
20260504210905 57 44 3.0 4.0 0.00 0.00 0.00 77 1015.1
20260504210005 57 47 4.0 6.0 0.00 0.00 0.00 77 1015.2
20260504205405 57 39 4.0 6.0 0.00 0.00 0.00 77 1015.2
20260504204505 57 20 4.0 4.0 0.00 0.00 0.00 77 1015.2
20260504203605 57 49 4.0 7.0 0.00 0.00 0.00 77 1015.1
20260504202705 57 40 3.0 4.0 0.00 0.00 0.00 77 1015.0
20260504201805 57 45 4.0 5.0 0.00 0.00 0.00 77 1015.0
20260504200905 57 33 4.0 7.0 0.00 0.00 0.00 76 1014.9
20260504200005 57 34 5.0 6.0 0.00 0.00 0.00 76 1014.9
20260504195405 58 36 5.0 6.0 0.00 0.00 0.00 76 1014.9
20260504194505 58 50 4.0 5.0 0.00 0.00 0.00 75 1014.8
20260504193605 58 8 4.0 4.0 0.00 0.00 0.00 75 1014.8
20260504192705 59 52 3.0 5.0 0.00 0.00 0.00 74 1014.6
20260504191829 59 26 4.0 6.0 0.00 0.00 0.00 73 1014.6
20260504190905 59 32 3.0 4.0 0.00 0.00 0.00 72 1014.6
20260504190005 59 63 2.0 4.0 0.00 0.00 0.00 72 1014.5
20260504185405 59 82 3.0 5.0 0.00 0.00 0.00 72 1014.5
20260504184505 60 69 3.0 5.0 0.00 0.00 0.00 72 1014.4
20260504183605 60 84 3.0 5.0 0.00 0.00 0.00 72 1014.5
20260504182726 60 52 3.0 4.0 0.00 0.00 0.00 71 1014.4
20260504181805 60 42 4.0 7.0 0.00 0.00 0.00 71 1014.4
20260504180905 60 31 5.0 7.0 0.00 0.00 0.00 71 1014.3
20260504180005 60 19 4.0 6.0 0.00 0.00 0.00 71 1014.2
20260504175405 60 62 4.0 7.0 0.00 0.00 0.00 71 1014.3
20260504174526 60 38 5.0 8.0 0.00 0.00 0.00 71 1014.1
20260504173605 60 37 5.0 8.0 0.00 0.00 0.00 70 1014.0
20260504172705 61 40 5.0 8.0 0.00 0.00 0.00 69 1014.1
20260504171826 61 42 5.0 8.0 0.00 0.00 0.00 68 1014.3